This is the latest recevied weather packets stored in our database for station/object NK2J. If no packets are shown the sender has not sent any weather packets the latest 10 day(s).
| Time | Temp. | Humidity | Pressure | Rain* | Wind** | Luminosity | Snow |
|---|---|---|---|---|---|---|---|
| 1777415993 | 28.89° C | 15% | 1015.5 hPa | 0 mm | - | 473 W/m² | - |
| 1777415689 | 28.89° C | 16% | 1015.5 hPa | 0 mm | - | 486 W/m² | - |
| 1777415385 | 28.33° C | 15% | 1015.6 hPa | 0 mm | - | 501 W/m² | - |
| 1777415084 | 28.33° C | 15% | 1015.6 hPa | 0 mm | - | 465 W/m² | - |
| 1777414779 | 28.33° C | 16% | 1015.6 hPa | 0 mm | - | 528 W/m² | - |
| 1777414476 | 28.33° C | 17% | 1015.8 hPa | 0 mm | - | 518 W/m² | - |
| 1777414174 | 27.78° C | 16% | 1015.7 hPa | 0 mm | - | 481 W/m² | - |
| 1777413870 | 27.78° C | 17% | 1015.8 hPa | 0 mm | - | 524 W/m² | - |
| 1777413566 | 27.78° C | 17% | 1015.9 hPa | 0 mm | - | 548 W/m² | - |
| 1777413262 | 27.78° C | 17% | 1016 hPa | 0 mm | - | 578 W/m² | - |
| 1777412958 | 27.78° C | 18% | 1015.9 hPa | 0 mm | - | 561 W/m² | - |
| 1777412656 | 28.89° C | 17% | 1016.1 hPa | 0 mm | - | 612 W/m² | - |
| 1777412354 | 28.33° C | 20% | 1016.2 hPa | 0 mm | - | 571 W/m² | - |
| 1777412049 | 27.78° C | 18% | 1016.3 hPa | 0 mm | - | 605 W/m² | - |
| 1777411749 | 27.78° C | 20% | 1016.5 hPa | 0 mm | - | 599 W/m² | - |
| 1777411443 | 27.22° C | 19% | 1016.3 hPa | 0 mm | - | 640 W/m² | - |
| 1777411138 | 27.78° C | 19% | 1016.3 hPa | 0 mm | - | 656 W/m² | - |
| 1777410837 | 27.78° C | 20% | 1016.5 hPa | 0 mm | - | 655 W/m² | - |
| 1777410532 | 27.22° C | 18% | 1016.4 hPa | 0 mm | - | 674 W/m² | - |
| 1777410231 | 27.22° C | 19% | 1016.6 hPa | 0 mm | - | 686 W/m² | - |
| 1777409927 | 27.22° C | 20% | 1016.7 hPa | 0 mm | - | 705 W/m² | - |
| 1777409622 | 27.78° C | 18% | 1016.7 hPa | 0 mm | - | 667 W/m² | - |
| 1777409318 | 27.22° C | 20% | 1016.8 hPa | 0 mm | - | 694 W/m² | - |
| 1777409014 | 27.78° C | 19% | 1016.9 hPa | 0 mm | - | 721 W/m² | - |
| 1777408711 | 27.78° C | 17% | 1016.8 hPa | 0 mm | - | 724 W/m² | - |
* Rain latest hour (hover to see other rain measurements)
** Current wind speed in m/s (hover to see current wind gust speed)